[[{"header":{"parameterUnit":"m.s-1","parameterCategory":2,"la1":30.2991,"la2":30.254,"lo1":-89.0895,"lo2":-89.0444,"dy":0.0017,"dx":0.0017,"nx":28,"ny":28,"refTime":"2025-04-02T03:00:00:Z","depth":"0","parameterNumber":2,"parameterNumberName":"U-component_of_CURRENTS"},"data":[0,0,0,0,0,0,0,0,0,0,0,0,0,0,0,0,0,0,0,0,0,0,0,0,0,0,0,0,0,0,0,0,0,0,0,0,0,0,0,0,0,0,0,0,0,0,0,0,0,0,0,0,0,0,0,0,0,0,-0.1849,-0.1849,0,-0.1847,-0.1847,-0.1847,-0.1844,-0.1844,-0.1844,-0.1844,-0.1803,-0.1801,-0.18,0,0,0,0,0,0,0,0,0,0,0,0,0,-0.1805,-0.1806,-0.1849,-0.1849,-0.1849,-0.1847,-0.1847,-0.1847,-0.1844,-0.1844,-0.1844,-0.1844,-0.1803,-0.1802,-0.18,0,0,0,0,0,0,0,0,0,0,0,0,0,-0.1814,-0.1806,-0.1849,-0.1849,-0.185,-0.1847,-0.1847,-0.1847,-0.1844,-0.1844,-0.1844,-0.1844,-0.1804,-0.1802,-0.18,-0.1783,0,0,-0.1794,-0.1793,0,0,0,0,0,0,0,0,-0.1813,-0.1815,-0.1849,-0.1849,-0.185,-0.1848,-0.1817,-0.1824,-0.1844,-0.1843,-0.1844,-0.1845,-0.1816,-0.1813,-0.1809,-0.1781,-0.1779,-0.1794,-0.1793,-0.1792,-0.1791,0,0,0,0,0,0,0,-0.1813,-0.1815,-0.1846,-0.1849,-0.185,-0.1835,-0.1836,-0.1818,-0.1825,-0.1843,-0.1844,-0.1848,-0.1815,-0.1811,-0.1808,-0.1778,-0.1794,-0.1792,-0.1791,-0.179,-0.1767,-0.1767,0,0,0,0,0,0,-0.182,-0.1815,-0.1846,-0.1846,-0.1835,-0.1836,-0.1837,-0.1846,-0.1826,-0.1825,-0.1847,-0.1847,-0.1814,-0.181,-0.1806,-0.1836,-0.1792,-0.179,-0.1789,-0.1766,-0.1767,-0.1767,0,0,0,0,0,0,-0.1819,-0.1823,-0.1846,-0.1832,-0.1834,-0.1837,-0.1846,-0.1846,-0.1846,-0.183,-0.1827,-0.1848,-0.1814,-0.1809,-0.1799,-0.1833,-0.1789,-0.1788,-0.1765,-0.1766,-0.1767,-0.1863,0,0,0,0,0,0,-0.1818,-0.1823,-0.1827,-0.1833,-0.1835,-0.1854,-0.1846,-0.1846,-0.1849,-0.1849,-0.183,-0.1826,-0.1814,-0.1802,-0.1797,-0.1829,-0.1786,-0.1765,-0.1766,-0.1767,-0.186,-0.1867,-0.1874,0,0,0,0,0,-0.1817,-0.1824,-0.1827,-0.183,-0.1842,-0.1855,-0.1854,-0.1855,-0.1849,-0.1854,-0.1841,-0.1827,-0.1805,-0.18,-0.1794,-0.1828,-0.1764,-0.1766,-0.1767,-0.1856,-0.1866,-0.1874,0,0,0,0,0,0,-0.1804,-0.1825,-0.1828,-0.184,-0.1851,-0.1855,-0.1855,-0.1856,-0.1849,-0.1845,-0.1828,-0.1823,-0.1831,-0.1805,-0.1801,-0.1821,-0.1784,-0.1784,-0.1854,-0.1863,-0.187,-0.1897,-0.1784,0,0,0,0,0,-0.1804,-0.1814,-0.1833,-0.184,-0.1847,-0.185,-0.1853,-0.1857,-0.1854,-0.1852,-0.1841,-0.1828,-0.1829,-0.1827,-0.1815,-0.1819,-0.1808,-0.1835,-0.1843,-0.1849,-0.1866,-0.1885,-0.1897,-0.1771,-0.1771,-0.1771,0,0,-0.1799,-0.1812,-0.1816,-0.1838,-0.1842,-0.1869,-0.1852,-0.186,-0.1891,-0.1846,-0.1868,-0.1849,-0.1834,-0.1849,-0.185,-0.1834,-0.1875,-0.1851,-0.1857,-0.187,-0.1888,-0.19,-0.1911,-0.1772,-0.1772,-0.1772,0,0,-0.1799,-0.1808,-0.182,-0.184,-0.1857,-0.1871,-0.1877,-0.1887,-0.1899,-0.1909,-0.1898,-0.1904,-0.1883,-0.1902,-0.1904,-0.1939,-0.1912,-0.1924,-0.1989,-0.2007,-0.2019,-0.2029,-0.2021,-0.2029,-0.1931,-0.1931,-0.1931,0,-0.1792,-0.182,-0.1824,-0.1851,-0.1878,-0.1879,-0.1913,-0.1928,-0.1935,-0.1955,-0.1925,-0.1938,-0.192,-0.1974,-0.1987,-0.1962,-0.195,-0.1963,-0.2021,-0.203,-0.2038,-0.2028,-0.2036,-0.1936,-0.1935,-0.1935,-0.1934,0,-0.1809,-0.184,-0.1849,-0.1894,-0.1921,-0.1947,-0.1983,-0.2005,-0.201,-0.2026,-0.2061,-0.204,-0.205,-0.205,-0.2028,-0.2088,-0.2052,-0.2029,-0.2007,-0.2058,-0.2042,-0.2049,-0.1942,-0.1941,-0.1939,-0.1938,0,0,-0.1778,-0.1849,-0.1854,-0.1897,-0.1952,-0.1979,-0.2039,-0.2099,-0.2141,-0.2143,-0.2194,-0.2205,-0.2184,-0.2185,-0.2165,-0.2185,-0.2227,-0.2133,-0.2132,-0.214,-0.2248,-0.218,-0.2179,-0.2212,-0.2214,-0.2216,-0.221,0,-0.1793,-0.1857,-0.1894,-0.1972,-0.2016,-0.2062,-0.2123,-0.2177,-0.2203,-0.2245,-0.2256,-0.2276,-0.2241,-0.2236,-0.2259,-0.2229,-0.2251,-0.223,-0.2185,-0.2183,-0.2129,-0.2188,-0.212,-0.2106,-0.2217,-0.2218,-0.2218,0,-0.1798,-0.1852,-0.1922,-0.2035,-0.2058,-0.2104,-0.2207,-0.226,-0.233,-0.2346,-0.2379,-0.2366,-0.2402,-0.2349,-0.2361,-0.2343,-0.2309,-0.2287,-0.2286,-0.2198,-0.2128,-0.2073,-0.2114,-0.2116,-0.2228,-0.2228,-0.2227,0,-0.1773,-0.1875,-0.1936,-0.1972,-0.2088,-0.2135,-0.2197,-0.2281,-0.233,-0.2398,-0.2417,-0.2459,-0.2451,-0.2447,-0.2382,-0.2375,-0.2374,-0.2355,-0.2272,-0.2265,-0.2188,-0.2171,-0.2241,-0.238,-0.238,-0.238,-0.238,0,-0.1778,-0.1829,-0.1927,-0.1962,-0.2047,-0.2131,-0.221,-0.2278,-0.2361,-0.2412,-0.2451,-0.2474,-0.2472,-0.2458,-0.2417,-0.2354,-0.2399,-0.2301,-0.2273,-0.2215,-0.2201,-0.218,-0.2189,-0.238,-0.238,-0.238,-0.238,0,-0.1731,-0.1795,-0.1871,-0.1993,-0.2029,-0.2083,-0.2201,-0.2257,-0.234,-0.2402,-0.242,-0.248,-0.2464,-0.2444,-0.2419,-0.2375,-0.2302,-0.23,-0.2216,-0.2179,-0.2109,-0.2124,-0.2142,-0.2078,-0.2232,-0.223,-0.2229,0,-0.1715,-0.1743,-0.1861,-0.1896,-0.1944,-0.2032,-0.2091,-0.2218,-0.2274,-0.2391,-0.2412,-0.2434,-0.2417,-0.2364,-0.2303,-0.2237,-0.2235,-0.2144,-0.2133,-0.2117,-0.2113,-0.2122,-0.2067,-0.2063,-0.206,-0.2058,-0.2056,0,-0.1671,-0.1697,-0.1751,-0.1823,-0.1885,-0.1969,-0.2061,-0.2106,-0.2244,-0.2293,-0.2344,-0.2343,-0.2314,-0.223,-0.2155,-0.2102,-0.211,-0.2098,-0.2118,-0.2028,-0.2007,-0.1925,-0.204,-0.2038,-0.204,-0.2041,-0.2042,-0.2043,-0.161,-0.1623,-0.1671,-0.1735,-0.1808,-0.1874,-0.1892,-0.1993,-0.2055,-0.2105,-0.2203,-0.2172,-0.218,-0.2066,-0.2015,-0.194,-0.1961,-0.1908,-0.1937,-0.1956,-0.1876,-0.1937,-0.1877,-0.1878,-0.1879,-0.188,-0.188,0,-0.1522,-0.1536,-0.1584,-0.1644,-0.1672,-0.1754,-0.1842,-0.1825,-0.1837,-0.1926,-0.1945,-0.1972,-0.1918,-0.1923,-0.1884,-0.1817,-0.1768,-0.1786,-0.1807,-0.1762,-0.1849,-0.1822,-0.1703,-0.1703,-0.1703,-0.1703,-0.1703,-0.1703,-0.1469,-0.1456,-0.1482,-0.1481,-0.1521,-0.1507,-0.1525,-0.1517,-0.1549,-0.1537,-0.1577,-0.1629,-0.1726,-0.1948,-0.1895,-0.1808,-0.1768,-0.1721,-0.1722,-0.1821,-0.1836,-0.185,-0.1829,-0.1713,-0.1713,-0.1583,-0.1582,-0.1581]},{"header":{"parameterUnit":"m.s-1","parameterCategory":2,"la1":30.2991,"la2":30.254,"lo1":-89.0895,"lo2":-89.0444,"dy":0.0017,"dx":0.0017,"nx":28,"ny":28,"refTime":"2025-04-02T03:00:00:Z","depth":"0","parameterNumber":3,"parameterNumberName":"V-component_of_CURRENTS"},"data":[0,0,0,0,0,0,0,0,0,0,0,0,0,0,0,0,0,0,0,0,0,0,0,0,0,0,0,0,0,0,0,0,0,0,0,0,0,0,0,0,0,0,0,0,0,0,0,0,0,0,0,0,0,0,0,0,0,0,0.0044,0.0045,0,0.0122,0.0122,0.0123,0.0168,0.0168,0.0168,0.0168,0.0251,0.0253,0.0255,0,0,0,0,0,0,0,0,0,0,0,0,0,-0.0021,-0.0021,0.0044,0.0045,0.0046,0.0121,0.0122,0.0123,0.0168,0.0168,0.0168,0.0168,0.025,0.0253,0.0255,0,0,0,0,0,0,0,0,0,0,0,0,0,0.0026,-0.0021,0.0044,0.0078,0.0081,0.0121,0.0122,0.0124,0.0168,0.0168,0.0168,0.0168,0.0249,0.0252,0.0255,0.0268,0,0,0.0265,0.0266,0,0,0,0,0,0,0,0,0.0023,0.0028,0.0072,0.0075,0.008,0.0136,0.013,0.0172,0.0167,0.0134,0.0168,0.0169,0.0213,0.0219,0.0232,0.0272,0.0275,0.0265,0.0267,0.0268,0.0269,0,0,0,0,0,0,0,0.002,0.0026,0.0074,0.0073,0.0078,0.0104,0.011,0.0138,0.0171,0.0137,0.0141,0.015,0.0215,0.0229,0.0234,0.0277,0.0265,0.0267,0.0269,0.027,0.0345,0.0345,0,0,0,0,0,0,0.0009,0.0022,0.0072,0.0077,0.0052,0.0104,0.0112,0.0117,0.0171,0.0179,0.015,0.0152,0.0224,0.0231,0.0237,0.0262,0.0268,0.0271,0.0272,0.0345,0.0345,0.0345,0,0,0,0,0,0,0.0007,0.0012,0.0069,0.0052,0.0061,0.0105,0.0111,0.0118,0.0134,0.018,0.0188,0.0157,0.0224,0.0233,0.0263,0.0266,0.0272,0.0275,0.0344,0.0345,0.0345,0.0308,0,0,0,0,0,0,0.0004,0.0011,0.0007,0.0051,0.0062,0.0087,0.0111,0.012,0.0139,0.0143,0.0189,0.0197,0.0225,0.0258,0.0266,0.027,0.0277,0.0344,0.0345,0.0345,0.0309,0.0307,0.0305,0,0,0,0,0,0.0002,-0.0007,0.0006,0.0013,0.0056,0.0087,0.0095,0.0127,0.0139,0.0142,0.0176,0.0196,0.0266,0.0261,0.027,0.0275,0.0344,0.0344,0.0345,0.031,0.0308,0.0305,0,0,0,0,0,0,-0.0041,-0.0002,0.0014,0.0016,0.0048,0.0095,0.0099,0.0123,0.0153,0.0156,0.0198,0.0209,0.0237,0.026,0.0253,0.0297,0.0308,0.031,0.0278,0.0276,0.0275,0.0265,0.028,0,0,0,0,0,-0.0052,-0.0047,-0.0003,-0.0002,0.0012,0.0055,0.0071,0.0094,0.0129,0.0142,0.0176,0.0212,0.0245,0.0263,0.0294,0.0316,0.0355,0.0326,0.0324,0.0322,0.032,0.0385,0.0389,0.0346,0.0346,0.0346,0,0,-0.007,-0.0047,-0.0045,-0.0011,0.0015,0.003,0.0065,0.0085,0.0099,0.0146,0.0169,0.0205,0.025,0.0277,0.0292,0.0297,0.0354,0.0322,0.032,0.032,0.0386,0.039,0.0394,0.0346,0.0346,0.0346,0,0,-0.0101,-0.0081,-0.0085,-0.006,-0.0023,0.0006,0.001,0.0056,0.0079,0.0107,0.0146,0.0186,0.0228,0.0269,0.0293,0.0299,0.0341,0.0304,0.0288,0.0351,0.0355,0.0359,0.0411,0.042,0.0303,0.0303,0.0303,0,-0.0126,-0.0122,-0.0083,-0.0075,-0.0062,-0.0008,-0.0009,0.0025,0.0075,0.0093,0.0106,0.0189,0.0227,0.0275,0.0278,0.0296,0.0332,0.0292,0.0349,0.0354,0.0359,0.0411,0.0421,0.0302,0.0302,0.0302,0.0302,0,-0.0153,-0.0149,-0.015,-0.0124,-0.0104,-0.0096,-0.0044,-0.0021,0.0011,0.0048,0.0099,0.016,0.0209,0.023,0.0256,0.0308,0.0323,0.0338,0.0353,0.0361,0.0415,0.0427,0.0299,0.03,0.03,0.0301,0,0,-0.0214,-0.0179,-0.018,-0.018,-0.013,-0.0121,-0.0092,-0.0053,-0.0036,0.0024,0.0054,0.0126,0.0165,0.0195,0.0243,0.03,0.0369,0.0327,0.0332,0.0375,0.0502,0.053,0.0546,0.0394,0.0396,0.0398,0.0525,0,-0.0251,-0.0263,-0.0225,-0.0236,-0.0239,-0.018,-0.016,-0.0114,-0.0064,-0.0019,0.0063,0.0107,0.0151,0.0175,0.0242,0.0337,0.0398,0.0332,0.0491,0.0495,0.0517,0.056,0.0621,0.0741,0.0537,0.0539,0.054,0,-0.0291,-0.0295,-0.0314,-0.0298,-0.0293,-0.0285,-0.0246,-0.0219,-0.0132,-0.0092,-0.0018,0.0047,0.0142,0.0175,0.0349,0.0303,0.0396,0.0473,0.048,0.0527,0.0545,0.0702,0.0771,0.0953,0.0559,0.0557,0.0556,0,-0.0366,-0.0358,-0.0383,-0.0375,-0.0343,-0.0337,-0.0316,-0.0246,-0.0223,-0.0133,-0.0101,0.0019,0.0083,0.0217,0.0375,0.0364,0.0568,0.0575,0.069,0.0692,0.0787,0.0794,0.1049,0.0699,0.0699,0.0699,0.0698,0,-0.0425,-0.0442,-0.0421,-0.0434,-0.0463,-0.0408,-0.0412,-0.0367,-0.0295,-0.0263,-0.0146,-0.0083,0.0097,0.0235,0.0373,0.0573,0.0573,0.0701,0.0736,0.0774,0.0779,0.0974,0.1017,0.0703,0.0702,0.0701,0.0701,0,-0.05,-0.0483,-0.0513,-0.0499,-0.0499,-0.052,-0.0488,-0.0481,-0.0399,-0.0347,-0.0321,-0.0152,0.0037,0.0224,0.0453,0.0571,0.0863,0.082,0.0846,0.0881,0.114,0.1176,0.1413,0.1508,0.097,0.0971,0.0973,0,-0.0539,-0.0563,-0.058,-0.0606,-0.0602,-0.0615,-0.0621,-0.0551,-0.053,-0.038,-0.0359,-0.0166,-0.0004,0.0343,0.0585,0.0844,0.0958,0.103,0.1022,0.1183,0.125,0.1267,0.133,0.1137,0.1139,0.1142,0.1143,0,-0.0617,-0.062,-0.0645,-0.0706,-0.0728,-0.0748,-0.074,-0.0738,-0.0633,-0.0546,-0.039,-0.024,0.0115,0.0453,0.0775,0.0928,0.1161,0.1078,0.1263,0.1419,0.144,0.1538,0.101,0.1162,0.116,0.1159,0.1158,0.1157,-0.067,-0.0711,-0.0748,-0.0805,-0.0838,-0.0863,-0.0867,-0.0821,-0.0759,-0.0583,-0.0425,-0.0117,0.0354,0.0836,0.1006,0.1403,0.1328,0.1529,0.1564,0.1571,0.1658,0.1155,0.1327,0.1326,0.1325,0.1324,0.1324,0,-0.0734,-0.0776,-0.0843,-0.0898,-0.0951,-0.094,-0.0932,-0.0883,-0.0792,-0.056,-0.035,0.0262,0.0738,0.1165,0.1692,0.1897,0.1933,0.1995,0.2069,0.2113,0.1712,0.1716,0.196,0.196,0.196,0.196,0.196,0.1959,-0.0766,-0.0844,-0.0881,-0.0984,-0.102,-0.1046,-0.1035,-0.0905,-0.0724,-0.0304,0.0083,0.0388,0.0992,0.1833,0.2339,0.2373,0.255,0.2513,0.2593,0.2352,0.2312,0.2274,0.2295,0.2656,0.2657,0.3013,0.3017,0.3019]}],[{"header":{"parameterUnit":"m.s-1","parameterCategory":2,"la1":30.2991,"la2":30.254,"lo1":-89.0895,"lo2":-89.0444,"dy":0.0017,"dx":0.0017,"nx":28,"ny":28,"refTime":"2025-04-02T03:00:00:Z","depth":"2","parameterNumber":2,"parameterNumberName":"U-component_of_CURRENTS"},"data":[0,0,0,0,0,0,0,0,0,0,0,0,0,0,0,0,0,0,0,0,0,0,0,0,0,0,0,0,0,0,0,0,0,0,0,0,0,0,0,0,0,0,0,0,0,0,0,0,0,0,0,0,0,0,0,0,0,0,-0.1778,-0.1778,0,-0.1777,-0.1777,-0.1777,-0.1775,-0.1775,-0.1775,-0.1775,-0.1734,-0.1733,-0.1732,0,0,0,0,0,0,0,0,0,0,0,0,0,-0.1731,-0.1732,-0.1778,-0.1778,-0.1779,-0.1777,-0.1777,-0.1777,-0.1775,-0.1775,-0.1775,-0.1775,-0.1735,-0.1733,-0.1731,0,0,0,0,0,0,0,0,0,0,0,0,0,-0.174,-0.1732,-0.1778,-0.178,-0.178,-0.1777,-0.1777,-0.1777,-0.1775,-0.1775,-0.1775,-0.1776,-0.1735,-0.1733,-0.1731,-0.1713,0,0,-0.1725,-0.1724,0,0,0,0,0,0,0,0,-0.174,-0.1742,-0.1779,-0.1779,-0.178,-0.1779,-0.1745,-0.1754,-0.1775,-0.1774,-0.1775,-0.1776,-0.1747,-0.1744,-0.174,-0.1711,-0.1709,-0.1725,-0.1724,-0.1723,-0.1723,0,0,0,0,0,0,0,-0.1739,-0.1741,-0.1775,-0.1779,-0.178,-0.1764,-0.1766,-0.1747,-0.1756,-0.1774,-0.1774,-0.1778,-0.1746,-0.1742,-0.1739,-0.1708,-0.1725,-0.1723,-0.1722,-0.1721,-0.1696,-0.1697,0,0,0,0,0,0,-0.1747,-0.1741,-0.1775,-0.1775,-0.1763,-0.1765,-0.1767,-0.1777,-0.1757,-0.1755,-0.1778,-0.1778,-0.1745,-0.1741,-0.1737,-0.1767,-0.1723,-0.1721,-0.172,-0.1696,-0.1696,-0.1697,0,0,0,0,0,0,-0.1746,-0.175,-0.1775,-0.176,-0.1762,-0.1766,-0.1777,-0.1776,-0.1777,-0.1761,-0.1758,-0.178,-0.1745,-0.174,-0.173,-0.1763,-0.172,-0.1719,-0.1695,-0.1696,-0.1697,-0.1791,0,0,0,0,0,0,-0.1745,-0.175,-0.1755,-0.1761,-0.1764,-0.1784,-0.1777,-0.1776,-0.178,-0.1781,-0.1762,-0.1758,-0.1745,-0.1733,-0.1728,-0.1759,-0.1717,-0.1694,-0.1695,-0.1696,-0.1788,-0.1795,-0.1802,0,0,0,0,0,-0.1743,-0.1752,-0.1755,-0.1759,-0.1772,-0.1784,-0.1784,-0.1785,-0.178,-0.1786,-0.1772,-0.1759,-0.1735,-0.1731,-0.1725,-0.1758,-0.1694,-0.1695,-0.1696,-0.1784,-0.1794,-0.1802,0,0,0,0,0,0,-0.1731,-0.1753,-0.1757,-0.1771,-0.1782,-0.1786,-0.1787,-0.1788,-0.1781,-0.1777,-0.1759,-0.1755,-0.1762,-0.1736,-0.1733,-0.175,-0.1714,-0.1714,-0.1784,-0.1792,-0.1799,-0.1825,-0.1715,0,0,0,0,0,-0.1732,-0.1744,-0.1762,-0.1771,-0.1779,-0.1782,-0.1785,-0.1789,-0.1787,-0.1784,-0.1773,-0.176,-0.176,-0.1757,-0.1745,-0.1748,-0.1737,-0.1764,-0.1771,-0.1777,-0.1793,-0.1811,-0.1823,-0.17,-0.17,-0.17,0,0,-0.1727,-0.1741,-0.1747,-0.1769,-0.1774,-0.18,-0.1784,-0.1794,-0.1822,-0.1779,-0.1799,-0.178,-0.1764,-0.1778,-0.1779,-0.1763,-0.1803,-0.1779,-0.1785,-0.1797,-0.1814,-0.1826,-0.1837,-0.1701,-0.1701,-0.1701,0,0,-0.1729,-0.174,-0.1754,-0.1773,-0.1792,-0.1804,-0.1811,-0.182,-0.1831,-0.1841,-0.183,-0.1835,-0.1813,-0.183,-0.1831,-0.1865,-0.1839,-0.1851,-0.1914,-0.1932,-0.1943,-0.1952,-0.1946,-0.1954,-0.1857,-0.1857,-0.1858,0,-0.1722,-0.1752,-0.1758,-0.1785,-0.1811,-0.1812,-0.1846,-0.186,-0.1866,-0.1885,-0.1857,-0.1867,-0.1849,-0.19,-0.1912,-0.1888,-0.1876,-0.1888,-0.1944,-0.1954,-0.1962,-0.1953,-0.1961,-0.1862,-0.1862,-0.1861,-0.1861,0,-0.1742,-0.1773,-0.1783,-0.1829,-0.1854,-0.1879,-0.1913,-0.1934,-0.1939,-0.1954,-0.1987,-0.1966,-0.1975,-0.1975,-0.1953,-0.201,-0.1975,-0.1953,-0.1931,-0.1981,-0.1966,-0.1973,-0.1869,-0.1867,-0.1866,-0.1865,0,0,-0.1713,-0.1785,-0.1789,-0.1831,-0.1885,-0.191,-0.1967,-0.2023,-0.2063,-0.2065,-0.2114,-0.2123,-0.2105,-0.2104,-0.2085,-0.2104,-0.2146,-0.2054,-0.2053,-0.2062,-0.2167,-0.2098,-0.2098,-0.2131,-0.2133,-0.2135,-0.2131,0,-0.1729,-0.1794,-0.183,-0.1904,-0.1947,-0.199,-0.2047,-0.2097,-0.2122,-0.2162,-0.2172,-0.2192,-0.2158,-0.2155,-0.2177,-0.2147,-0.2169,-0.2148,-0.2105,-0.2103,-0.2049,-0.2106,-0.1928,-0.1907,-0.2137,-0.2138,-0.2139,0,-0.1735,-0.1789,-0.1858,-0.1965,-0.1987,-0.203,-0.2126,-0.2176,-0.2242,-0.2258,-0.229,-0.2279,-0.2314,-0.2263,-0.2275,-0.2258,-0.2226,-0.2205,-0.2204,-0.2115,-0.2048,-0.1894,-0.191,-0.215,-0.2149,-0.2148,-0.2147,0,-0.1712,-0.1811,-0.1871,-0.1905,-0.2016,-0.2059,-0.2117,-0.2196,-0.2243,-0.2309,-0.2327,-0.2368,-0.2362,-0.2359,-0.2297,-0.2289,-0.2289,-0.227,-0.2189,-0.2182,-0.2011,-0.1987,-0.2295,-0.2295,-0.2295,-0.2295,-0.2295,0,-0.1718,-0.1767,-0.1863,-0.1897,-0.1976,-0.2056,-0.213,-0.2194,-0.2273,-0.2321,-0.236,-0.2382,-0.2383,-0.2369,-0.233,-0.2268,-0.2313,-0.2217,-0.2189,-0.2036,-0.2014,-0.2206,-0.2196,-0.2295,-0.2295,-0.2295,-0.2295,0,-0.1673,-0.1736,-0.181,-0.1926,-0.1961,-0.2011,-0.2122,-0.2174,-0.2254,-0.2313,-0.2331,-0.2389,-0.2374,-0.2356,-0.2332,-0.2288,-0.225,-0.2215,-0.2023,-0.1974,-0.2126,-0.2121,-0.2151,-0.2149,-0.2147,-0.2146,-0.2144,0,-0.1658,-0.1687,-0.18,-0.1833,-0.188,-0.1963,-0.2017,-0.2138,-0.219,-0.2302,-0.2321,-0.2344,-0.2324,-0.2272,-0.2193,-0.2125,-0.2191,-0.1946,-0.1919,-0.2148,-0.2118,-0.2115,-0.2112,-0.172,-0.1715,-0.1711,-0.1708,0,-0.1616,-0.1643,-0.1695,-0.1764,-0.1822,-0.1899,-0.1985,-0.2026,-0.2158,-0.2201,-0.2249,-0.2246,-0.2201,-0.2048,-0.1967,-0.1907,-0.1948,-0.1868,-0.2158,-0.1789,-0.1743,-0.1713,-0.1724,-0.1674,-0.1678,-0.168,-0.1682,-0.1683,-0.1556,-0.157,-0.1618,-0.1678,-0.1745,-0.1804,-0.1819,-0.19,-0.1953,-0.1968,-0.2078,-0.1992,-0.1982,-0.175,-0.1675,-0.1608,-0.1738,-0.1669,-0.168,-0.1696,-0.1652,-0.1606,-0.1502,-0.1504,-0.1506,-0.1508,-0.1509,0,-0.1465,-0.1486,-0.1532,-0.1587,-0.1603,-0.1688,-0.1768,-0.1721,-0.1709,-0.1737,-0.1727,-0.1539,-0.1461,-0.1452,-0.1292,-0.1287,-0.1266,-0.1248,-0.1217,-0.1251,-0.1281,-0.1217,-0.0951,-0.0949,-0.0948,-0.0947,0,0,-0.1412,-0.1398,-0.1424,-0.1413,-0.1454,-0.1416,-0.143,-0.1373,-0.1344,-0.1233,-0.1183,-0.1299,-0.1361,-0.1131,-0.1104,-0.0995,-0.1102,-0.0945,-0.1387,-0.1378,-0.1406,-0.1514,-0.1451,0,0,0,0,0]},{"header":{"parameterUnit":"m.s-1","parameterCategory":2,"la1":30.2991,"la2":30.254,"lo1":-89.0895,"lo2":-89.0444,"dy":0.0017,"dx":0.0017,"nx":28,"ny":28,"refTime":"2025-04-02T03:00:00:Z","depth":"2","parameterNumber":3,"parameterNumberName":"V-component_of_CURRENTS"},"data":[0,0,0,0,0,0,0,0,0,0,0,0,0,0,0,0,0,0,0,0,0,0,0,0,0,0,0,0,0,0,0,0,0,0,0,0,0,0,0,0,0,0,0,0,0,0,0,0,0,0,0,0,0,0,0,0,0,0,-0.0011,-0.001,0,0.0067,0.0068,0.0069,0.0112,0.0112,0.0112,0.0113,0.0194,0.0196,0.0198,0,0,0,0,0,0,0,0,0,0,0,0,0,-0.0082,-0.0081,-0.0011,-0.001,-0.0009,0.0067,0.0068,0.0069,0.0112,0.0112,0.0112,0.0113,0.0193,0.0196,0.0198,0,0,0,0,0,0,0,0,0,0,0,0,0,-0.0033,-0.0081,-0.0011,0.0022,0.0026,0.0067,0.0068,0.007,0.0112,0.0112,0.0113,0.0113,0.0192,0.0195,0.0198,0.0212,0,0,0.0208,0.0209,0,0,0,0,0,0,0,0,-0.0035,-0.003,0.0016,0.002,0.0024,0.0081,0.0073,0.0118,0.0112,0.0079,0.0113,0.0113,0.0156,0.0162,0.0176,0.0216,0.022,0.0208,0.021,0.0211,0.0212,0,0,0,0,0,0,0,-0.0039,-0.0033,0.002,0.0017,0.0022,0.0047,0.0054,0.0082,0.0115,0.0082,0.0085,0.0095,0.0159,0.0173,0.0178,0.0221,0.0208,0.021,0.0212,0.0213,0.029,0.029,0,0,0,0,0,0,-0.005,-0.0036,0.0017,0.0022,-0.0005,0.0048,0.0056,0.0062,0.0115,0.0123,0.0094,0.0096,0.0168,0.0175,0.0181,0.0206,0.0211,0.0214,0.0215,0.0289,0.029,0.029,0,0,0,0,0,0,-0.0052,-0.0046,0.0014,-0.0005,0.0005,0.0049,0.0056,0.0063,0.0079,0.0124,0.0133,0.0102,0.0168,0.0177,0.0207,0.0209,0.0215,0.0218,0.0289,0.0289,0.029,0.0251,0,0,0,0,0,0,-0.0054,-0.0047,-0.005,-0.0006,0.0005,0.0034,0.0056,0.0065,0.0085,0.0088,0.0134,0.0142,0.0169,0.0202,0.021,0.0213,0.022,0.0289,0.0289,0.029,0.0252,0.025,0.0249,0,0,0,0,0,-0.0057,-0.0064,-0.0051,-0.0044,0.0001,0.0034,0.0041,0.0074,0.0085,0.0089,0.0122,0.014,0.021,0.0205,0.0214,0.0218,0.0289,0.0289,0.029,0.0253,0.0251,0.0249,0,0,0,0,0,0,-0.01,-0.0059,-0.0044,-0.0039,-0.0006,0.0041,0.0047,0.0071,0.0101,0.0103,0.0144,0.0154,0.0182,0.0205,0.0198,0.0241,0.0252,0.0255,0.0222,0.022,0.0218,0.0206,0.0223,0,0,0,0,0,-0.011,-0.0104,-0.0058,-0.0056,-0.0041,0.0002,0.0018,0.0042,0.0076,0.009,0.0123,0.0158,0.0191,0.0208,0.0238,0.0262,0.0298,0.027,0.0268,0.0266,0.0264,0.0324,0.0328,0.0291,0.0291,0.0291,0,0,-0.0128,-0.0103,-0.0101,-0.0064,-0.0038,-0.0022,0.0012,0.0034,0.0047,0.0094,0.0116,0.0152,0.0195,0.0222,0.0237,0.0242,0.0296,0.0267,0.0265,0.0263,0.0325,0.0329,0.0332,0.0292,0.0292,0.0292,0,0,-0.0157,-0.0136,-0.0138,-0.0112,-0.0073,-0.0045,-0.0041,0.0007,0.0028,0.0056,0.0094,0.0133,0.0176,0.0214,0.0236,0.0243,0.0284,0.0249,0.0232,0.0291,0.0294,0.0298,0.0347,0.0356,0.0249,0.0249,0.0249,0,-0.0182,-0.0176,-0.0135,-0.0126,-0.0113,-0.0059,-0.0059,-0.0026,0.0024,0.0041,0.0056,0.0136,0.0174,0.0217,0.022,0.0239,0.0275,0.0235,0.0288,0.0292,0.0297,0.0347,0.0357,0.0247,0.0247,0.0247,0.0247,0,-0.0207,-0.0201,-0.0201,-0.0173,-0.0153,-0.0145,-0.0094,-0.0071,-0.004,-0.0004,0.0044,0.0105,0.0152,0.0173,0.0199,0.0246,0.0262,0.0278,0.0291,0.0298,0.0351,0.0361,0.0244,0.0245,0.0245,0.0246,0,0,-0.0266,-0.0228,-0.0229,-0.0229,-0.018,-0.0171,-0.0144,-0.0107,-0.0092,-0.0033,-0.0006,0.0065,0.0104,0.0133,0.018,0.0235,0.0299,0.0263,0.0267,0.0308,0.0425,0.0452,0.0466,0.0324,0.0325,0.0326,0.0449,0,-0.0302,-0.0311,-0.0274,-0.0284,-0.0287,-0.023,-0.0213,-0.017,-0.0122,-0.008,0.0,0.0042,0.0088,0.0112,0.0175,0.0268,0.0326,0.0264,0.0417,0.0421,0.0441,0.0479,0.0401,0.0506,0.046,0.0462,0.0463,0,-0.034,-0.0343,-0.0362,-0.0348,-0.0343,-0.0336,-0.0303,-0.0277,-0.0195,-0.0156,-0.0086,-0.0021,0.007,0.0105,0.0272,0.023,0.0321,0.0395,0.0402,0.0447,0.0468,0.0493,0.0527,0.0482,0.048,0.0479,0.0478,0,-0.0415,-0.0407,-0.0431,-0.0424,-0.0393,-0.039,-0.0371,-0.0305,-0.0285,-0.0199,-0.0169,-0.0054,0.0009,0.0139,0.0296,0.0286,0.0482,0.0489,0.0601,0.0603,0.0577,0.0575,0.0607,0.0607,0.0606,0.0606,0.0606,0,-0.0473,-0.0491,-0.0469,-0.0482,-0.0513,-0.046,-0.0467,-0.0426,-0.0358,-0.033,-0.0215,-0.0155,0.0021,0.0156,0.0291,0.0485,0.0484,0.0609,0.0644,0.0562,0.0557,0.0565,0.0558,0.0611,0.061,0.0609,0.0608,0,-0.0548,-0.053,-0.056,-0.0548,-0.0548,-0.057,-0.0543,-0.0539,-0.046,-0.0413,-0.0388,-0.0224,-0.004,0.0143,0.0365,0.048,0.0656,0.0722,0.0611,0.0631,0.0738,0.0728,0.0861,0.0864,0.0865,0.0867,0.0868,0,-0.0586,-0.0609,-0.0626,-0.0653,-0.0649,-0.0665,-0.0673,-0.0607,-0.0589,-0.0446,-0.0427,-0.0239,-0.0085,0.0252,0.0462,0.0707,0.0719,0.078,0.0754,0.0747,0.0767,0.0754,0.0742,0.0704,0.0704,0.0704,0.0703,0,-0.0663,-0.0665,-0.0691,-0.0751,-0.0775,-0.0796,-0.0791,-0.0791,-0.0693,-0.0611,-0.0461,-0.0318,0.0001,0.0251,0.0554,0.0685,0.0734,0.0787,0.0824,0.065,0.0609,0.0625,0.0616,0.0702,0.0702,0.0702,0.0702,0.0702,-0.0717,-0.0758,-0.0793,-0.085,-0.0884,-0.0911,-0.0918,-0.088,-0.0824,-0.0678,-0.0521,-0.0278,-0.0038,0.0386,0.0588,0.0767,0.0785,0.082,0.0816,0.0814,0.0772,0.0736,0.0845,0.0846,0.0847,0.0848,0.0849,0,-0.0782,-0.0822,-0.0888,-0.0944,-0.0999,-0.0987,-0.0984,-0.0959,-0.0883,-0.0715,-0.0534,-0.025,0.0062,0.0325,0.06,0.0783,0.0749,0.0807,0.0715,0.0715,0.0716,0.0665,0.0713,0.0713,0.0713,0.0714,0,0,-0.0815,-0.0893,-0.0929,-0.1033,-0.1068,-0.1106,-0.1097,-0.1024,-0.0911,-0.075,-0.0556,-0.0278,0.0055,0.0223,0.0433,0.0577,0.0594,0.0583,0.0667,0.0529,0.0527,0.0696,0.0615,0,0,0,0,0]}],[{"header":{"parameterUnit":"m.s-1","parameterCategory":2,"la1":30.2991,"la2":30.254,"lo1":-89.0895,"lo2":-89.0444,"dy":0.0017,"dx":0.0017,"nx":28,"ny":28,"refTime":"2025-04-02T03:00:00:Z","depth":"4","parameterNumber":2,"parameterNumberName":"U-component_of_CURRENTS"},"data":[0,0,0,0,0,0,0,0,0,0,0,0,0,0,0,0,0,0,0,0,0,0,0,0,0,0,0,0,0,0,0,0,0,0,0,0,0,0,0,0,0,0,0,0,0,0,0,0,0,0,0,0,0,0,0,0,0,0,-0.1224,-0.1225,0,-0.1263,-0.1263,-0.1263,-0.1295,-0.1296,-0.1296,-0.1297,-0.1306,-0.1306,-0.1305,0,0,0,0,0,0,0,0,0,0,0,0,0,-0.1101,-0.1103,-0.1224,-0.1225,-0.1226,-0.1263,-0.1263,-0.1263,-0.1295,-0.1296,-0.1296,-0.1297,-0.1306,-0.1306,-0.1305,0,0,0,0,0,0,0,0,0,0,0,0,0,-0.1146,-0.1104,-0.1224,-0.1248,-0.1251,-0.1263,-0.1263,-0.1263,-0.1295,-0.1296,-0.1297,-0.1298,-0.1306,-0.1306,-0.1305,-0.1284,0,0,-0.1304,-0.1304,0,0,0,0,0,0,0,0,-0.1143,-0.115,-0.1244,-0.1246,-0.125,-0.1278,-0.1223,-0.127,-0.1295,-0.1275,-0.1297,-0.1298,-0.1295,-0.1295,-0.1297,-0.1285,-0.1285,-0.1304,-0.1303,-0.1303,-0.1303,0,0,0,0,0,0,0,-0.114,-0.1148,-0.1237,-0.1245,-0.1248,-0.1231,-0.1239,-0.1232,-0.1277,-0.1277,-0.128,-0.1289,-0.1296,-0.1297,-0.1297,-0.1285,-0.1304,-0.1303,-0.1303,-0.1303,-0.1325,-0.1326,0,0,0,0,0,0,-0.1145,-0.1146,-0.1235,-0.1238,-0.1201,-0.1233,-0.1241,-0.1265,-0.1277,-0.1281,-0.1288,-0.129,-0.1298,-0.1298,-0.1298,-0.1352,-0.1303,-0.1303,-0.1302,-0.1325,-0.1326,-0.1327,0,0,0,0,0,0,-0.1142,-0.1153,-0.1234,-0.1194,-0.1203,-0.1235,-0.1261,-0.1266,-0.1292,-0.1287,-0.129,-0.1313,-0.1298,-0.1298,-0.1315,-0.135,-0.1303,-0.1302,-0.1324,-0.1325,-0.1326,-0.141,0,0,0,0,0,0,-0.1139,-0.1152,-0.1178,-0.1195,-0.1206,-0.1261,-0.1261,-0.1266,-0.1296,-0.13,-0.1308,-0.1309,-0.1299,-0.1316,-0.1315,-0.1348,-0.1302,-0.1322,-0.1324,-0.1326,-0.1407,-0.1414,-0.1421,0,0,0,0,0,-0.1134,-0.1165,-0.1179,-0.119,-0.1239,-0.1263,-0.1267,-0.1289,-0.1297,-0.1314,-0.132,-0.131,-0.1326,-0.1317,-0.1315,-0.1349,-0.1322,-0.1324,-0.1326,-0.1403,-0.1413,-0.1421,0,0,0,0,0,0,-0.112,-0.1172,-0.1187,-0.1233,-0.1256,-0.127,-0.1292,-0.1301,-0.1319,-0.1327,-0.1318,-0.1319,-0.1347,-0.1331,-0.132,-0.1359,-0.1323,-0.1325,-0.1383,-0.1391,-0.1399,-0.1413,-0.1301,0,0,0,0,0,-0.113,-0.1174,-0.1205,-0.1243,-0.1259,-0.1278,-0.1293,-0.1307,-0.1322,-0.1332,-0.1337,-0.1341,-0.1349,-0.1358,-0.1356,-0.1374,-0.1362,-0.1394,-0.1402,-0.1408,-0.1418,-0.1434,-0.1444,-0.1333,-0.1333,-0.1333,0,0,-0.1134,-0.1169,-0.1194,-0.1244,-0.1264,-0.1295,-0.129,-0.1323,-0.1352,-0.1328,-0.137,-0.1366,-0.1358,-0.1384,-0.1395,-0.138,-0.1431,-0.1411,-0.1417,-0.1423,-0.1437,-0.1448,-0.1457,-0.1335,-0.1334,-0.1334,0,0,-0.1155,-0.1197,-0.1238,-0.1264,-0.1306,-0.1319,-0.1335,-0.1362,-0.1384,-0.141,-0.1408,-0.143,-0.143,-0.1445,-0.1448,-0.1492,-0.1468,-0.1488,-0.1543,-0.1559,-0.1569,-0.1577,-0.157,-0.1577,-0.1495,-0.1495,-0.1495,0,-0.1155,-0.1217,-0.1249,-0.1289,-0.1316,-0.1335,-0.1371,-0.1394,-0.1423,-0.1445,-0.1435,-0.1468,-0.1463,-0.151,-0.1527,-0.1513,-0.1505,-0.1514,-0.1571,-0.1578,-0.1585,-0.1577,-0.1583,-0.15,-0.1499,-0.1499,-0.1498,0,-0.1201,-0.1255,-0.1279,-0.1344,-0.1372,-0.1407,-0.1441,-0.1473,-0.1493,-0.1512,-0.1561,-0.1559,-0.158,-0.1586,-0.1569,-0.1625,-0.1596,-0.1577,-0.1552,-0.1602,-0.1589,-0.1594,-0.1506,-0.1504,-0.1503,-0.1502,0,0,-0.1184,-0.1293,-0.1303,-0.1343,-0.1406,-0.143,-0.1487,-0.1539,-0.1579,-0.1609,-0.1658,-0.1685,-0.1688,-0.1691,-0.1685,-0.1703,-0.1743,-0.1666,-0.1665,-0.1666,-0.1763,-0.1633,-0.1626,-0.1735,-0.1737,-0.1738,-0.1732,0,-0.1209,-0.1299,-0.1345,-0.1418,-0.1461,-0.1501,-0.155,-0.1599,-0.1633,-0.168,-0.1708,-0.1744,-0.1728,-0.1741,-0.1764,-0.1742,-0.1762,-0.1745,-0.1708,-0.1707,-0.1591,-0.163,-0.1743,-0.1736,-0.1737,-0.1738,-0.1739,0,-0.123,-0.1293,-0.1376,-0.1466,-0.1488,-0.153,-0.1609,-0.1655,-0.1726,-0.1753,-0.1804,-0.1813,-0.1859,-0.1828,-0.1847,-0.1835,-0.1812,-0.1795,-0.1793,-0.1647,-0.1587,-0.1675,-0.1748,-0.1747,-0.1747,-0.1746,-0.1746,0,-0.1199,-0.1307,-0.1379,-0.141,-0.1512,-0.1554,-0.1604,-0.1679,-0.1719,-0.1802,-0.1828,-0.1885,-0.1899,-0.1903,-0.1864,-0.1861,-0.186,-0.1847,-0.1716,-0.1706,-0.1789,-0.178,-0.187,-0.187,-0.187,-0.187,-0.187,0,-0.1197,-0.1252,-0.1374,-0.141,-0.1478,-0.1552,-0.1621,-0.1678,-0.1756,-0.1795,-0.1863,-0.1883,-0.1918,-0.1913,-0.1887,-0.1804,-0.1879,-0.1731,-0.1701,-0.1822,-0.1817,-0.1792,-0.1783,-0.1869,-0.1869,-0.1869,-0.187,0,-0.1146,-0.1235,-0.1314,-0.1433,-0.1467,-0.1512,-0.1614,-0.1653,-0.1743,-0.1792,-0.1818,-0.1884,-0.1871,-0.188,-0.1867,-0.1805,-0.1757,-0.1712,-0.1832,-0.1808,-0.1591,-0.1587,-0.1575,-0.157,-0.1566,-0.1563,-0.156,0,-0.1128,-0.1173,-0.1307,-0.134,-0.1395,-0.1474,-0.1515,-0.1627,-0.1659,-0.1767,-0.1768,-0.1806,-0.1827,-0.1703,-0.1733,-0.1679,-0.1657,-0.1629,-0.1627,-0.1591,-0.1564,-0.1566,-0.1566,-0.1554,-0.1553,-0.1552,-0.1551,0,-0.1077,-0.114,-0.1201,-0.1272,-0.1327,-0.1384,-0.1452,-0.1464,-0.1577,-0.168,-0.1666,-0.1657,-0.1637,-0.1614,-0.1575,-0.1542,-0.1647,-0.1588,-0.1597,-0.1595,-0.1566,-0.1543,-0.1549,-0.1538,-0.154,-0.1541,-0.1542,0,-0.1021,-0.1049,-0.113,-0.1178,-0.1241,-0.1256,-0.1317,-0.1346,-0.1394,-0.1516,-0.1505,-0.1548,-0.1615,-0.1541,-0.1509,-0.1459,-0.1442,-0.1399,-0.1417,-0.1432,-0.1386,-0.1329,-0.1206,0,0,0,0,0,-0.0951,-0.0974,-0.1021,-0.1065,-0.1121,-0.1152,-0.1249,-0.1312,-0.1423,-0.137,-0.1434,-0.141,-0.1374,-0.14,-0.1315,-0.1439,-0.1443,-0.1336,-0.1403,-0.1464,-0.1479,-0.1437,0,0,0,0,0,0,-0.0901,-0.095,-0.0983,-0.095,-0.0949,-0.0994,-0.1048,-0.1132,-0.1113,-0.1233,-0.1213,-0.1312,-0.1288,-0.1381,-0.1276,-0.1283,-0.1295,-0.1374,-0.137,-0.1455,-0.1469,-0.1482,-0.1443,0,0,0,0,0]},{"header":{"parameterUnit":"m.s-1","parameterCategory":2,"la1":30.2991,"la2":30.254,"lo1":-89.0895,"lo2":-89.0444,"dy":0.0017,"dx":0.0017,"nx":28,"ny":28,"refTime":"2025-04-02T03:00:00:Z","depth":"4","parameterNumber":3,"parameterNumberName":"V-component_of_CURRENTS"},"data":[0,0,0,0,0,0,0,0,0,0,0,0,0,0,0,0,0,0,0,0,0,0,0,0,0,0,0,0,0,0,0,0,0,0,0,0,0,0,0,0,0,0,0,0,0,0,0,0,0,0,0,0,0,0,0,0,0,0,-0.0084,-0.0083,0,-0.0011,-0.001,-0.0009,0.0018,0.0017,0.0017,0.0017,0.0086,0.0088,0.009,0,0,0,0,0,0,0,0,0,0,0,0,0,-0.0168,-0.0167,-0.0084,-0.0083,-0.0082,-0.0011,-0.001,-0.0009,0.0018,0.0017,0.0017,0.0017,0.0085,0.0087,0.009,0,0,0,0,0,0,0,0,0,0,0,0,0,-0.0117,-0.0167,-0.0084,-0.006,-0.0057,-0.0011,-0.001,-0.0008,0.0018,0.0017,0.0017,0.0017,0.0084,0.0087,0.009,0.0115,0,0,0.0099,0.0101,0,0,0,0,0,0,0,0,-0.012,-0.0115,-0.0065,-0.0062,-0.0058,-0.0006,-0.0014,0.0033,0.0018,-0.0011,0.0017,0.0017,0.0055,0.0061,0.0075,0.0118,0.0121,0.01,0.0101,0.0103,0.0104,0,0,0,0,0,0,0,-0.0124,-0.0117,-0.0055,-0.0063,-0.006,-0.0041,-0.0035,-0.0005,0.0022,-0.0009,-0.0006,0.0003,0.0057,0.0072,0.0076,0.0122,0.01,0.0102,0.0104,0.0105,0.0196,0.0196,0,0,0,0,0,0,-0.0133,-0.0121,-0.0058,-0.0053,-0.009,-0.004,-0.0032,-0.0023,0.0022,0.0029,0.0003,0.0004,0.0067,0.0073,0.0079,0.0101,0.0103,0.0106,0.0107,0.0195,0.0196,0.0196,0,0,0,0,0,0,-0.0135,-0.0128,-0.0061,-0.0085,-0.0075,-0.0038,-0.0027,-0.0021,-0.0007,0.0031,0.0038,0.001,0.0067,0.0075,0.0106,0.0104,0.0107,0.011,0.0194,0.0195,0.0196,0.0152,0,0,0,0,0,0,-0.0138,-0.013,-0.0128,-0.0086,-0.0074,-0.0036,-0.0026,-0.0019,-0.0,0.0001,0.004,0.0046,0.0067,0.0102,0.0109,0.0108,0.0112,0.0194,0.0195,0.0196,0.0152,0.0151,0.015,0,0,0,0,0,-0.0141,-0.0138,-0.0129,-0.0121,-0.0073,-0.0036,-0.0028,-0.0003,0.0,0.0008,0.0034,0.0045,0.0114,0.0105,0.0114,0.0113,0.0193,0.0194,0.0196,0.0153,0.0151,0.015,0,0,0,0,0,0,-0.0177,-0.0134,-0.0123,-0.0107,-0.0075,-0.0031,-0.0022,-0.0004,0.0024,0.0023,0.0054,0.0063,0.0089,0.0113,0.0102,0.0145,0.0155,0.0158,0.0119,0.0118,0.0117,0.0097,0.0115,0,0,0,0,0,-0.0183,-0.017,-0.0125,-0.0115,-0.0099,-0.0061,-0.0045,-0.0026,0.0006,0.0018,0.0046,0.0076,0.0103,0.0118,0.0148,0.0173,0.0196,0.018,0.0178,0.0177,0.0168,0.0205,0.0205,0.0201,0.0201,0.0201,0,0,-0.0197,-0.017,-0.0165,-0.0122,-0.0096,-0.0079,-0.0052,-0.0027,-0.0019,0.0021,0.004,0.0073,0.011,0.0135,0.0149,0.0153,0.0192,0.0179,0.0177,0.0169,0.0206,0.0207,0.0207,0.0202,0.0201,0.0201,0,0,-0.0213,-0.0191,-0.0183,-0.0156,-0.0116,-0.0093,-0.0087,-0.0041,-0.0027,0.0002,0.0028,0.006,0.0105,0.0129,0.0146,0.0158,0.0184,0.0169,0.0145,0.018,0.0181,0.0181,0.0213,0.0217,0.0168,0.0168,0.0168,0,-0.0234,-0.0218,-0.0176,-0.0159,-0.015,-0.0103,-0.0101,-0.0073,-0.0025,-0.0018,0.0,0.0065,0.0099,0.0123,0.0129,0.0152,0.0176,0.0144,0.0176,0.0177,0.0179,0.0212,0.0216,0.0166,0.0166,0.0166,0.0167,0,-0.0239,-0.023,-0.0223,-0.0193,-0.0175,-0.0164,-0.0124,-0.0106,-0.0083,-0.0057,-0.0024,0.0032,0.0066,0.0087,0.0112,0.0136,0.0152,0.0168,0.0174,0.0176,0.0211,0.0217,0.0163,0.0164,0.0165,0.0165,0,0,-0.0284,-0.0239,-0.024,-0.0241,-0.0197,-0.0189,-0.0173,-0.0151,-0.015,-0.0095,-0.0087,-0.0026,0.0007,0.003,0.0072,0.0107,0.0143,0.0138,0.0141,0.0157,0.0221,0.0203,0.0207,0.0164,0.0165,0.0165,0.0242,0,-0.0309,-0.0303,-0.0271,-0.0281,-0.0281,-0.0242,-0.0237,-0.021,-0.0178,-0.0153,-0.0092,-0.0063,-0.0016,0.0004,0.0047,0.0121,0.0156,0.0121,0.0227,0.023,0.0203,0.0212,0.0167,0.0247,0.0248,0.0249,0.0249,0,-0.0328,-0.0326,-0.0339,-0.0338,-0.0336,-0.0335,-0.0332,-0.0317,-0.0266,-0.0238,-0.019,-0.0136,-0.0072,-0.0031,0.0087,0.0063,0.0134,0.0192,0.0197,0.0196,0.0222,0.0247,0.026,0.0259,0.0258,0.0258,0.0257,0,-0.039,-0.0381,-0.0403,-0.0399,-0.038,-0.039,-0.0385,-0.0349,-0.0344,-0.0288,-0.0269,-0.0188,-0.0138,-0.0042,0.0089,0.0088,0.0221,0.0235,0.0284,0.0284,0.0296,0.0295,0.031,0.031,0.031,0.031,0.0309,0,-0.0428,-0.0449,-0.0436,-0.0447,-0.0488,-0.0451,-0.0479,-0.0454,-0.0417,-0.0408,-0.0318,-0.028,-0.0137,-0.0037,0.0073,0.0197,0.0211,0.0277,0.0301,0.0277,0.0273,0.03,0.0298,0.0312,0.0312,0.0311,0.0311,0,-0.0482,-0.047,-0.0501,-0.0504,-0.0513,-0.0542,-0.0545,-0.0554,-0.0506,-0.0485,-0.0468,-0.0346,-0.0213,-0.0068,0.0098,0.017,0.0292,0.0332,0.0295,0.0317,0.0334,0.0329,0.0383,0.0383,0.0383,0.0383,0.0383,0,-0.0504,-0.0522,-0.0556,-0.0585,-0.059,-0.0622,-0.0641,-0.0608,-0.0605,-0.052,-0.0508,-0.0378,-0.0283,-0.0057,0.0089,0.0283,0.031,0.0361,0.0345,0.0323,0.0341,0.0336,0.0331,0.0383,0.0383,0.0383,0.0383,0,-0.0554,-0.0567,-0.0594,-0.0655,-0.069,-0.0725,-0.074,-0.0741,-0.0685,-0.0646,-0.0529,-0.0395,-0.0245,-0.0064,0.0088,0.0228,0.0319,0.0361,0.0362,0.0347,0.0323,0.034,0.0336,0.0382,0.0382,0.0382,0.0383,0,-0.0594,-0.063,-0.0667,-0.072,-0.0772,-0.0801,-0.0803,-0.0769,-0.0748,-0.0634,-0.0597,-0.0408,-0.0294,-0.0091,0.0051,0.0183,0.0209,0.0236,0.0244,0.0246,0.0181,0.0129,0.0146,0,0,0,0,0,-0.0625,-0.0668,-0.0727,-0.0777,-0.0828,-0.0851,-0.0856,-0.0837,-0.078,-0.0705,-0.0643,-0.0492,-0.0257,-0.0147,-0.002,0.0028,0.0211,0.0177,0.024,0.0382,0.0382,0.0326,0,0,0,0,0,0,-0.0648,-0.071,-0.0735,-0.0812,-0.0852,-0.0898,-0.09,-0.0857,-0.08,-0.0719,-0.0587,-0.0489,-0.0259,-0.0332,-0.0026,0.0015,0.0066,0.0299,0.0301,0.0382,0.0382,0.0382,0.0325,0,0,0,0,0]}]]